sat.trackr.live / text

‹ back to catalog

ONEWEB-0547

NORAD 56049 · 2023-043D

PAYLOAD ACTIVE UNKNOWN

§ Identity

Operator
Country
UK
Launch date
2023-03-26
Launch site
SRILR
Launch vehicle
Mass (kg)
RCS (m²)

Purposes: comms

External: N2YO · Heavens-Above · Gunter

§ Orbital elements

Epoch: 2026-09-20T04:06:50.987808Z

Period
108.94 min
Inclination
87.9285°
Eccentricity
0.0001958
Mean motion
13.21826877 rev/d
Perigee alt
1,176.3 km
Apogee alt
1,179.2 km
Semi-major
7,555.9 km
B*
1.3691e-5
RAAN
225.0706°
Arg perigee
74.5622°
Mean anomaly
285.5728°
Rev number
17,077

§ Raw data

ONEWEB-05471 56049U 23043D   26263.17142347  .00000019  00000+0  13691-4 0  99972 56049  87.9285 225.0706 0001958  74.5622 285.5728 13.21826877170770

JSON: /api/v1/satellites/56049 · /tle

For live sub-satellite position, see the globe view (requires WebGL).

§ Visibility from observer

Set your observer location to see the next 7 days of passes ≥ 10°. The values pass through the URL so the page stays shareable.

No JS? Fill the form by hand. The geolocation button needs JavaScript.